CCA372 ZSZS-ZBTJ

Flight info

Callsign CCA372
Flight time 1h 45m
Altitude 36100
Route PONAB W13 PINOT B221 XDX/K0846S1070 W174 TAO/K0852S1100 W103 JDW V89 DOVIV W55 DUMAP
Aircraft B738/M-SDE2E3FGHIRWXY/LB1

Departure

Time 2026-05-04 05:23
Airport Zhoushan Putuoshan International Airport (ZSZS)

Arrival

Time 2026-05-04 07:09
Airport Tianjin Binhai International Airport (ZBTJ)
Time Latitude Longitude Altitude Speed Heading
2026-05-04 05:06 29.93691 122.35845 13 ft 0 kts 264°
2026-05-04 05:15 29.93691 122.35846 13 ft 0 kts 264°
2026-05-04 05:15 29.93692 122.35861 13 ft 2 kts 264°
2026-05-04 05:16 29.93693 122.35879 13 ft 2 kts 264°
2026-05-04 05:16 29.93695 122.35895 13 ft 2 kts 264°
2026-05-04 05:16 29.93697 122.35913 13 ft 2 kts 267°
2026-05-04 05:16 29.93691 122.35928 13 ft 2 kts 324°
2026-05-04 05:17 29.93683 122.35931 13 ft 1 kts 352°
2026-05-04 05:17 29.93675 122.35932 13 ft 0 kts 354°
2026-05-04 05:17 29.93676 122.35932 13 ft 0 kts 354°
2026-05-04 05:18 29.93688 122.35931 13 ft 3 kts 353°
2026-05-04 05:19 29.93716 122.35927 13 ft 4 kts 354°
2026-05-04 05:19 29.93754 122.35923 13 ft 5 kts 354°
2026-05-04 05:19 29.93798 122.35930 13 ft 6 kts 30°
2026-05-04 05:19 29.93822 122.35977 13 ft 7 kts 51°
2026-05-04 05:20 29.93881 122.35994 13 ft 11 kts 353°
2026-05-04 05:20 29.93979 122.35983 13 ft 16 kts 355°
2026-05-04 05:20 29.94111 122.35970 11 ft 21 kts 354°
2026-05-04 05:20 29.94274 122.35953 10 ft 23 kts 354°
2026-05-04 05:21 29.94423 122.35937 10 ft 19 kts 354°
2026-05-04 05:21 29.94511 122.35935 10 ft 9 kts 26°
2026-05-04 05:21 29.94533 122.36003 10 ft 9 kts 88°
2026-05-04 05:21 29.94535 122.36083 9 ft 9 kts 90°
2026-05-04 05:22 29.94495 122.36118 10 ft 7 kts 172°
2026-05-04 05:22 29.94485 122.36120 10 ft 0 kts 173°
2026-05-04 05:23 29.94223 122.36146 10 ft 79 kts 175°
2026-05-04 05:23 29.93424 122.36231 13 ft 148 kts 174°
2026-05-04 05:23 29.92271 122.36341 469 ft 170 kts 177°
2026-05-04 05:23 29.91081 122.36349 1249 ft 181 kts 184°
2026-05-04 05:24 29.89796 122.36015 1772 ft 202 kts 211°
2026-05-04 05:24 29.88914 122.34777 2246 ft 206 kts 255°
2026-05-04 05:24 29.88745 122.33155 2746 ft 205 kts 279°
2026-05-04 05:24 29.89382 122.31750 3247 ft 205 kts 319°
2026-05-04 05:25 29.90637 122.30975 3755 ft 207 kts 344°
2026-05-04 05:25 29.92059 122.30899 4244 ft 208 kts 12°
2026-05-04 05:25 29.93461 122.31332 4758 ft 212 kts
2026-05-04 05:25 29.94976 122.31628 5256 ft 230 kts
2026-05-04 05:26 29.96606 122.31958 5738 ft 249 kts
2026-05-04 05:26 29.98310 122.32333 6228 ft 247 kts
2026-05-04 05:26 30.00003 122.32713 6724 ft 248 kts
2026-05-04 05:26 30.01712 122.33100 7222 ft 257 kts
2026-05-04 05:27 30.03531 122.33502 7724 ft 268 kts
2026-05-04 05:28 30.16747 122.36476 11170 ft 300 kts
2026-05-04 05:29 30.18851 122.36946 11665 ft 313 kts
2026-05-04 05:29 30.21007 122.37431 12147 ft 325 kts
2026-05-04 05:29 30.23287 122.37947 12642 ft 336 kts
2026-05-04 05:29 30.25636 122.38372 13124 ft 345 kts
2026-05-04 05:31 30.43836 122.39345 16533 ft 399 kts 359°
2026-05-04 05:31 30.46613 122.39496 17020 ft 404 kts 359°
2026-05-04 05:32 30.49426 122.39642 17512 ft 408 kts 359°
2026-05-04 05:32 30.52264 122.39785 17999 ft 412 kts 359°
2026-05-04 05:32 30.55162 122.39937 18480 ft 416 kts 358°
2026-05-04 05:33 30.61002 122.40271 19422 ft 422 kts 358°
2026-05-04 05:33 30.63952 122.40441 19888 ft 425 kts 357°
2026-05-04 05:33 30.66916 122.40614 20355 ft 428 kts 357°
2026-05-04 05:33 30.69876 122.40781 20815 ft 430 kts 356°
2026-05-04 05:34 30.72890 122.40951 21279 ft 431 kts 356°
2026-05-04 05:34 30.75871 122.41121 21740 ft 433 kts 355°
2026-05-04 05:34 30.78867 122.41287 22191 ft 434 kts 355°
2026-05-04 05:34 30.81909 122.41451 22644 ft 434 kts 354°
2026-05-04 05:35 30.84924 122.41615 23121 ft 434 kts 354°
2026-05-04 05:35 30.87932 122.41775 23611 ft 434 kts 354°
2026-05-04 05:35 30.90930 122.41927 24099 ft 434 kts 354°
2026-05-04 05:35 30.93980 122.42087 24604 ft 433 kts 353°
2026-05-04 05:36 30.96970 122.42242 25107 ft 432 kts 353°
2026-05-04 05:36 30.99953 122.42394 25604 ft 431 kts 353°
2026-05-04 05:36 31.02953 122.42552 25956 ft 435 kts 353°
2026-05-04 05:36 31.06057 122.42712 26010 ft 446 kts 353°
2026-05-04 05:37 31.09176 122.42866 26064 ft 457 kts 353°
2026-05-04 05:37 31.12427 122.43033 26124 ft 467 kts 354°
2026-05-04 05:37 31.15701 122.43205 26178 ft 477 kts 354°
2026-05-04 05:38 31.22433 122.43580 26381 ft 492 kts 354°
2026-05-04 05:38 31.25847 122.43772 26495 ft 498 kts 354°
2026-05-04 05:38 31.29316 122.43965 26711 ft 502 kts 354°
2026-05-04 05:38 31.32827 122.44174 27025 ft 503 kts 354°
2026-05-04 05:39 31.36337 122.44385 27271 ft 506 kts 354°
2026-05-04 05:39 31.43341 122.44530 27934 ft 498 kts 347°
2026-05-04 05:39 31.46727 122.43969 28157 ft 485 kts 335°
2026-05-04 05:40 31.52934 122.41333 28882 ft 473 kts 328°
2026-05-04 05:40 31.56001 122.39960 29194 ft 474 kts 329°
2026-05-04 05:40 31.59096 122.38595 29556 ft 473 kts 329°
2026-05-04 05:41 31.62174 122.37238 30018 ft 470 kts 328°
2026-05-04 05:41 31.65206 122.35881 30499 ft 466 kts 328°
2026-05-04 05:41 31.68220 122.34515 30705 ft 468 kts 328°
2026-05-04 05:41 31.71257 122.33130 31045 ft 468 kts 328°
2026-05-04 05:42 31.74273 122.31754 31445 ft 465 kts 328°
2026-05-04 05:42 31.77311 122.30339 31723 ft 464 kts 326°
2026-05-04 05:42 31.80238 122.28839 32106 ft 460 kts 324°
2026-05-04 05:42 31.83182 122.27303 32198 ft 465 kts 326°
2026-05-04 05:43 31.89179 122.24568 32192 ft 460 kts 328°
2026-05-04 05:45 32.13098 122.13742 32194 ft 467 kts 327°
2026-05-04 05:47 32.37066 122.02850 32202 ft 462 kts 327°
2026-05-04 05:47 32.43051 122.00120 32204 ft 459 kts 327°
2026-05-04 05:48 32.48983 121.97411 32207 ft 455 kts 327°
2026-05-04 05:48 32.54881 121.94713 32205 ft 456 kts 327°
2026-05-04 05:49 32.60835 121.91975 32208 ft 461 kts 327°
2026-05-04 05:49 32.66819 121.89231 32205 ft 460 kts 327°
2026-05-04 05:51 32.90538 121.78288 32208 ft 455 kts 327°
2026-05-04 05:52 32.96429 121.75566 32209 ft 455 kts 328°
2026-05-04 05:52 33.02333 121.72833 32213 ft 455 kts 328°
2026-05-04 05:54 33.25938 121.61809 32200 ft 458 kts 328°
2026-05-04 05:55 33.31779 121.58839 32203 ft 456 kts 327°
2026-05-04 05:55 33.37599 121.55833 32210 ft 454 kts 327°
2026-05-04 05:56 33.43376 121.52843 32197 ft 453 kts 327°
2026-05-04 05:56 33.49160 121.49864 32210 ft 454 kts 327°
2026-05-04 05:57 33.54967 121.46845 32198 ft 457 kts 328°
2026-05-04 05:57 33.60798 121.43848 32203 ft 453 kts 328°
2026-05-04 05:58 33.66553 121.40865 32207 ft 451 kts 328°
2026-05-04 05:58 33.72404 121.38028 32194 ft 456 kts 330°
2026-05-04 05:59 33.78350 121.35248 32204 ft 458 kts 330°
2026-05-04 05:59 33.84266 121.32443 32209 ft 457 kts 330°
2026-05-04 06:00 33.90156 121.29652 32198 ft 455 kts 331°
2026-05-04 06:00 33.96037 121.26863 32202 ft 454 kts 331°
2026-05-04 06:01 34.01939 121.24049 32207 ft 457 kts 331°
2026-05-04 06:03 34.25489 121.12825 32211 ft 453 kts 332°
2026-05-04 06:05 34.51776 121.00196 32219 ft 451 kts 333°
2026-05-04 06:06 34.57621 120.97386 32212 ft 451 kts 332°
2026-05-04 06:06 34.63427 120.94576 32217 ft 451 kts 333°
2026-05-04 06:07 34.69255 120.91753 32211 ft 449 kts 333°
2026-05-04 06:07 34.75042 120.88952 32214 ft 449 kts 333°
2026-05-04 06:08 34.80835 120.86133 32212 ft 449 kts 333°
2026-05-04 06:08 34.86641 120.83321 32211 ft 448 kts 334°
2026-05-04 06:09 34.92428 120.80504 32210 ft 448 kts 333°
2026-05-04 06:11 35.15614 120.69176 32202 ft 447 kts 334°
2026-05-04 06:13 35.38732 120.57940 32196 ft 448 kts 335°
2026-05-04 06:14 35.58920 120.48146 32184 ft 447 kts 335°
2026-05-04 06:15 35.64703 120.45322 32184 ft 445 kts 335°
2026-05-04 06:15 35.70446 120.42507 32172 ft 446 kts 335°
2026-05-04 06:16 35.76216 120.39677 32162 ft 446 kts 335°
2026-05-04 06:16 35.81980 120.36858 32152 ft 445 kts 335°
2026-05-04 06:17 35.87749 120.34127 32161 ft 446 kts 339°
2026-05-04 06:17 35.93929 120.33074 32151 ft 456 kts
2026-05-04 06:18 36.00150 120.34911 32148 ft 465 kts 18°
2026-05-04 06:18 36.02980 120.36872 32130 ft 473 kts 34°
2026-05-04 06:20 36.22774 120.48749 32146 ft 454 kts 358°
2026-05-04 06:21 36.38530 120.50232 32141 ft 459 kts
2026-05-04 06:22 36.44618 120.52763 32137 ft 464 kts 16°
2026-05-04 06:25 36.88300 120.62351 32125 ft 454 kts
2026-05-04 06:26 36.94539 120.63456 32125 ft 454 kts
2026-05-04 06:26 37.00793 120.64627 32118 ft 454 kts
2026-05-04 06:27 37.16409 120.67549 32120 ft 454 kts
2026-05-04 06:28 37.22638 120.68717 32119 ft 454 kts
2026-05-04 06:28 37.28876 120.69885 32123 ft 453 kts
2026-05-04 06:29 37.35110 120.71055 32122 ft 454 kts
2026-05-04 06:29 37.41355 120.72233 32118 ft 453 kts
2026-05-04 06:30 37.47615 120.72746 32119 ft 446 kts 352°
2026-05-04 06:30 37.53556 120.71088 32117 ft 437 kts 334°
2026-05-04 06:31 37.58782 120.67265 32116 ft 432 kts 319°
2026-05-04 06:31 37.62696 120.61661 32120 ft 430 kts 303°
2026-05-04 06:33 37.74269 120.35317 32110 ft 429 kts 300°
2026-05-04 06:34 37.77244 120.28773 32102 ft 430 kts 300°
2026-05-04 06:34 37.80209 120.22246 32100 ft 430 kts 300°
2026-05-04 06:36 37.92060 119.95972 32087 ft 431 kts 300°
2026-05-04 06:37 37.95001 119.89422 32087 ft 431 kts 300°
2026-05-04 06:37 37.97983 119.82774 32088 ft 432 kts 300°
2026-05-04 06:38 38.00922 119.76194 32079 ft 432 kts 300°
2026-05-04 06:40 38.12406 119.49414 32076 ft 433 kts 293°
2026-05-04 06:40 38.14667 119.42354 32078 ft 434 kts 294°
2026-05-04 06:41 38.16984 119.35259 32077 ft 435 kts 294°
2026-05-04 06:41 38.19275 119.28200 32079 ft 436 kts 293°
2026-05-04 06:42 38.21580 119.21054 32059 ft 437 kts 293°
2026-05-04 06:42 38.22734 119.17487 31664 ft 444 kts 293°
2026-05-04 06:44 38.30840 118.92279 28001 ft 447 kts 294°
2026-05-04 06:44 38.32019 118.88590 27462 ft 448 kts 294°
2026-05-04 06:44 38.33187 118.84935 26931 ft 449 kts 294°
2026-05-04 06:45 38.34357 118.81271 26398 ft 450 kts 294°
2026-05-04 06:45 38.35525 118.77604 25870 ft 452 kts 294°
2026-05-04 06:45 38.36714 118.73877 25342 ft 451 kts 294°
2026-05-04 06:45 38.37869 118.70255 24612 ft 437 kts 294°
2026-05-04 06:46 38.38998 118.66720 23814 ft 429 kts 294°
2026-05-04 06:46 38.40117 118.63211 23034 ft 430 kts 294°
2026-05-04 06:46 38.41244 118.59673 22245 ft 429 kts 294°
2026-05-04 06:46 38.42364 118.56169 21460 ft 425 kts 294°
2026-05-04 06:48 38.49819 118.32664 16156 ft 395 kts 294°
2026-05-04 06:48 38.50837 118.29434 15399 ft 391 kts 294°
2026-05-04 06:49 38.51844 118.26238 14629 ft 386 kts 294°
2026-05-04 06:50 38.58404 118.05769 10378 ft 307 kts 305°
2026-05-04 06:51 38.59707 118.03726 9900 ft 293 kts 319°
2026-05-04 06:51 38.61315 118.02228 9390 ft 282 kts 332°
2026-05-04 06:51 38.63096 118.01291 8900 ft 275 kts 342°
2026-05-04 06:51 38.64908 118.00562 8411 ft 268 kts 341°
2026-05-04 06:52 38.66650 117.99825 7927 ft 264 kts 340°
2026-05-04 06:52 38.68378 117.99089 7424 ft 260 kts 339°
2026-05-04 06:52 38.69924 117.97997 6951 ft 256 kts 317°
2026-05-04 06:52 38.71139 117.96349 6472 ft 255 kts 311°
2026-05-04 06:53 38.72376 117.94710 5977 ft 254 kts 315°
2026-05-04 06:53 38.73639 117.93179 5474 ft 253 kts 315°
2026-05-04 06:53 38.74922 117.91638 4992 ft 252 kts 314°
2026-05-04 06:53 38.76180 117.90120 4885 ft 248 kts 314°
2026-05-04 06:54 38.77454 117.88574 4886 ft 251 kts 314°
2026-05-04 06:54 38.78725 117.87040 4862 ft 253 kts 315°
2026-05-04 06:54 38.80011 117.85493 4885 ft 253 kts 315°
2026-05-04 06:54 38.81295 117.83954 4870 ft 253 kts 315°
2026-05-04 06:55 38.82578 117.82411 4865 ft 253 kts 315°
2026-05-04 06:55 38.83865 117.80865 4863 ft 254 kts 315°
2026-05-04 06:55 38.85162 117.79311 4864 ft 254 kts 315°
2026-05-04 06:55 38.86447 117.77767 4871 ft 254 kts 315°
2026-05-04 06:56 38.87745 117.76202 4855 ft 254 kts 315°
2026-05-04 06:57 38.96770 117.65334 4857 ft 255 kts 315°
2026-05-04 06:58 38.98061 117.63773 4867 ft 254 kts 315°
2026-05-04 06:58 38.99347 117.62220 4851 ft 254 kts 315°
2026-05-04 06:58 39.00640 117.60660 4847 ft 254 kts 315°
2026-05-04 06:58 39.01933 117.59094 4691 ft 257 kts 315°
2026-05-04 06:59 39.03213 117.57550 4417 ft 254 kts 314°
2026-05-04 06:59 39.04501 117.55997 4149 ft 253 kts 314°
2026-05-04 06:59 39.05779 117.54451 3920 ft 253 kts 314°
2026-05-04 06:59 39.07060 117.52905 3667 ft 253 kts 314°
2026-05-04 07:01 39.18234 117.46232 2959 ft 261 kts 340°
2026-05-04 07:01 39.19981 117.45573 2956 ft 261 kts 338°
2026-05-04 07:02 39.21633 117.44648 2951 ft 258 kts 329°
2026-05-04 07:02 39.23210 117.43594 2945 ft 244 kts 329°
2026-05-04 07:02 39.24671 117.42645 2808 ft 230 kts 329°
2026-05-04 07:02 39.26067 117.41738 2622 ft 218 kts 329°
2026-05-04 07:03 39.27391 117.40874 2432 ft 208 kts 329°
2026-05-04 07:03 39.28612 117.39983 2244 ft 194 kts 315°
2026-05-04 07:03 39.29372 117.38664 2056 ft 178 kts 285°
2026-05-04 07:03 39.29538 117.37174 1939 ft 164 kts 262°
2026-05-04 07:04 39.29306 117.35762 1963 ft 163 kts 252°
2026-05-04 07:04 39.29018 117.34328 1945 ft 164 kts 253°
2026-05-04 07:04 39.28730 117.32879 1932 ft 164 kts 252°
2026-05-04 07:04 39.28448 117.31464 1932 ft 163 kts 252°
2026-05-04 07:05 39.28140 117.30041 1934 ft 164 kts 246°
2026-05-04 07:05 39.27407 117.28941 1923 ft 164 kts 206°
2026-05-04 07:05 39.26279 117.28920 1946 ft 173 kts 162°
2026-05-04 07:05 39.25182 117.29610 1955 ft 175 kts 161°
2026-05-04 07:06 39.22971 117.30877 1878 ft 177 kts 160°
2026-05-04 07:06 39.21859 117.31553 1647 ft 174 kts 159°
2026-05-04 07:06 39.20781 117.32212 1435 ft 166 kts 159°
2026-05-04 07:07 39.19794 117.32819 1238 ft 151 kts 159°
2026-05-04 07:08 39.13153 117.36865 19 ft 116 kts 154°
2026-05-04 07:09 39.12613 117.37198 19 ft 53 kts 158°
2026-05-04 07:09 39.12407 117.37251 19 ft 20 kts 181°
2026-05-04 07:09 39.12363 117.37250 19 ft 0 kts 181°
2026-05-04 07:12 39.12476 117.37048 19 ft 9 kts 336°
2026-05-04 07:12 39.12517 117.37024 19 ft 0 kts 336°
2026-05-04 07:14 39.12502 117.36993 19 ft 7 kts 223°
2026-05-04 07:14 39.12452 117.36917 19 ft 14 kts 240°
2026-05-04 07:15 39.12406 117.36795 19 ft 14 kts 244°
2026-05-04 07:15 39.12368 117.36696 19 ft 10 kts 244°
2026-05-04 07:15 39.12338 117.36613 19 ft 10 kts 247°
2026-05-04 07:15 39.12363 117.36536 19 ft 10 kts 330°
2026-05-04 07:16 39.12434 117.36491 19 ft 11 kts 333°
2026-05-04 07:16 39.12511 117.36444 19 ft 12 kts 334°
2026-05-04 07:16 39.12551 117.36379 19 ft 8 kts 262°
2026-05-04 07:16 39.12525 117.36301 19 ft 10 kts 244°
2026-05-04 07:17 39.12493 117.36217 19 ft 11 kts 244°
2026-05-04 07:17 39.12462 117.36132 19 ft 8 kts 244°
2026-05-04 07:17 39.12439 117.36070 19 ft 7 kts 244°
2026-05-04 07:17 39.12424 117.36005 17 ft 6 kts 290°
2026-05-04 07:18 39.12453 117.35981 18 ft 3 kts 335°
2026-05-04 07:18 39.12466 117.35973 18 ft 1 kts 334°
2026-05-04 07:18 39.12475 117.35967 18 ft 1 kts 334°
2026-05-04 07:18 39.12476 117.35967 18 ft 0 kts 334°